• în România
  • Lista ţărilor
  • Pe 7 zile
  • Temperatura apei
  • Hartă satelitară
  • Meteo pe hartă
  • Widget-uri
  • user-avatar
    Intrare

    Meteo pe oră la Kalgoorlie

    Astăzi, 16 Iulie, Luni

    Timp Temperatura Precipitaţii Vânt Presiune Umiditate
    00:00 +8°C° 0 mm 4 m/s 729 mmHg 76%
    01:00 +8°C° 0 mm 5 m/s 729 mmHg 78%
    02:00 +8°C° 0 mm 5 m/s 729 mmHg 81%
    03:00 +8°C° 0 mm 5 m/s 729 mmHg 83%
    04:00 +8°C° 0 mm 5 m/s 728 mmHg 85%
    05:00 +8°C° 0 mm 5 m/s 728 mmHg 87%
    06:00 +8°C° 0 mm 6 m/s 728 mmHg 86%
    07:00 +8°C° 0 mm 6 m/s 728 mmHg 84%
    08:00 +10°C° 0 mm 7 m/s 728 mmHg 82%
    09:00 +11°C° 0 mm 8 m/s 728 mmHg 74%
    10:00 +13°C° 0 mm 9 m/s 727 mmHg 66%
    11:00 +16°C° 0 mm 9 m/s 727 mmHg 58%
    12:00 +17°C° 0 mm 10 m/s 727 mmHg 55%
    13:00 +18°C° 0 mm 10 m/s 726 mmHg 52%
    14:00 +19°C° 0 mm 11 m/s 726 mmHg 48%
    15:00 +18°C° 0 mm 11 m/s 726 mmHg 52%
    16:00 +17°C° 0 mm 11 m/s 726 mmHg 55%
    17:00 +16°C° 0 mm 11 m/s 726 mmHg 59%
    18:00 +14°C° 0 mm 10 m/s 727 mmHg 60%
    19:00 +15°C° 0 mm 9 m/s 727 mmHg 62%
    20:00 +13°C° 0 mm 9 m/s 728 mmHg 63%
    21:00 +12°C° 0 mm 8 m/s 728 mmHg 68%
    22:00 +12°C° 0 mm 7 m/s 728 mmHg 73%
    23:00 +11°C° 0 mm 6 m/s 729 mmHg 78%

    Mâine, 17 Iulie, Marţi

    Timp Temperatura Precipitaţii Vânt Presiune Umiditate
    00:00 +10°C° 0 mm 6 m/s 729 mmHg 80%
    01:00 +9°C° 0 mm 5 m/s 729 mmHg 83%
    02:00 +8°C° 0 mm 5 m/s 730 mmHg 85%
    03:00 +8°C° 0 mm 4 m/s 730 mmHg 86%
    04:00 +7°C° 0 mm 4 m/s 730 mmHg 87%
    05:00 +7°C° 0 mm 3 m/s 730 mmHg 87%
    06:00 +7°C° 0 mm 3 m/s 730 mmHg 85%
    07:00 +7°C° 0 mm 3 m/s 731 mmHg 82%
    08:00 +7°C° 0 mm 2 m/s 731 mmHg 79%
    09:00 +9°C° 0 mm 3 m/s 731 mmHg 67%
    10:00 +11°C° 0 mm 3 m/s 731 mmHg 55%
    11:00 +12°C° 0 mm 3 m/s 731 mmHg 43%
    12:00 +14°C° 0 mm 4 m/s 731 mmHg 38%
    13:00 +15°C° 0 mm 5 m/s 730 mmHg 34%
    14:00 +16°C° 0 mm 5 m/s 730 mmHg 29%
    15:00 +16°C° 0 mm 5 m/s 730 mmHg 31%
    16:00 +15°C° 0 mm 4 m/s 730 mmHg 33%
    17:00 +15°C° 0 mm 4 m/s 730 mmHg 35%
    18:00 +14°C° 0 mm 4 m/s 730 mmHg 38%
    19:00 +13°C° 0 mm 4 m/s 730 mmHg 42%
    20:00 +12°C° 0 mm 4 m/s 730 mmHg 45%
    21:00 +12°C° 0 mm 4 m/s 730 mmHg 49%
    22:00 +11°C° 0 mm 4 m/s 730 mmHg 52%
    23:00 +11°C° 0 mm 4 m/s 731 mmHg 56%

    Poimâine, 18 Iulie, Miercuri

    Timp Temperatura Precipitaţii Vânt Presiune Umiditate
    00:00 +10°C° 0 mm 4 m/s 730 mmHg 59%
    01:00 +10°C° 0 mm 4 m/s 730 mmHg 62%
    02:00 +9°C° 0 mm 3 m/s 730 mmHg 65%
    03:00 +9°C° 0 mm 3 m/s 730 mmHg 69%
    04:00 +9°C° 0 mm 3 m/s 730 mmHg 73%
    05:00 +8°C° 0 mm 3 m/s 729 mmHg 77%
    06:00 +9°C° 0 mm 3 m/s 730 mmHg 77%
    07:00 +8°C° 0 mm 4 m/s 730 mmHg 78%
    08:00 +8°C° 0 mm 4 m/s 731 mmHg 78%
    09:00 +10°C° 0 mm 5 m/s 731 mmHg 69%
    10:00 +13°C° 0 mm 6 m/s 731 mmHg 60%
    11:00 +15°C° 0 mm 7 m/s 731 mmHg 51%
    12:00 +15°C° 0 mm 7 m/s 730 mmHg 51%
    13:00 +15°C° 0 mm 7 m/s 730 mmHg 51%
    14:00 +15°C° 0 mm 8 m/s 729 mmHg 51%
    15:00 +15°C° 0 mm 7 m/s 729 mmHg 52%
    16:00 +14°C° 0 mm 7 m/s 729 mmHg 53%
    17:00 +14°C° 0 mm 6 m/s 729 mmHg 53%
    18:00 +13°C° 0 mm 6 m/s 730 mmHg 55%
    19:00 +13°C° 0 mm 5 m/s 730 mmHg 56%
    20:00 +13°C° 0 mm 4 m/s 731 mmHg 57%
    21:00 +12°C° 0 mm 4 m/s 731 mmHg 62%
    22:00 +11°C° 0 mm 4 m/s 731 mmHg 67%
    23:00 +10°C° 0 mm 5 m/s 731 mmHg 71%

    19 Iulie, Joi

    Timp Temperatura Precipitaţii Vânt Presiune Umiditate
    00:00 +9°C° 0 mm 5 m/s 732 mmHg 77%
    01:00 +9°C° 0 mm 5 m/s 732 mmHg 82%
    02:00 +8°C° 0 mm 5 m/s 732 mmHg 88%
    03:00 +8°C° 0 mm 4 m/s 732 mmHg 88%
    04:00 +7°C° 0 mm 4 m/s 733 mmHg 89%
    05:00 +7°C° 0 mm 4 m/s 733 mmHg 90%
    06:00 +7°C° 0 mm 4 m/s 733 mmHg 86%
    07:00 +6°C° 0 mm 4 m/s 734 mmHg 82%
    08:00 +6°C° 0 mm 4 m/s 735 mmHg 77%
    09:00 +8°C° 0 mm 4 m/s 735 mmHg 66%
    10:00 +10°C° 0 mm 4 m/s 735 mmHg 55%
    11:00 +12°C° 0 mm 3 m/s 735 mmHg 44%
    12:00 +13°C° 0 mm 3 m/s 734 mmHg 41%
    13:00 +13°C° 0 mm 3 m/s 734 mmHg 38%
    14:00 +14°C° 0 mm 3 m/s 733 mmHg 35%
    15:00 +15°C° 0 mm 2 m/s 734 mmHg 37%
    16:00 +14°C° 0 mm 2 m/s 734 mmHg 39%
    17:00 +14°C° 0 mm 2 m/s 734 mmHg 40%
    18:00 +13°C° 0 mm 2 m/s 734 mmHg 45%
    19:00 +12°C° 0 mm 2 m/s 735 mmHg 49%
    20:00 +10°C° 0 mm 3 m/s 735 mmHg 53%
    21:00 +9°C° 0 mm 3 m/s 735 mmHg 56%
    22:00 +9°C° 0 mm 3 m/s 735 mmHg 59%
    23:00 +8°C° 0 mm 3 m/s 735 mmHg 63%

    20 Iulie, Vineri

    Timp Temperatura Precipitaţii Vânt Presiune Umiditate
    00:00 +8°C° 0 mm 3 m/s 735 mmHg 64%
    01:00 +8°C° 0 mm 3 m/s 735 mmHg 66%
    02:00 +7°C° 0 mm 3 m/s 734 mmHg 68%
    03:00 +6°C° 0 mm 4 m/s 734 mmHg 68%
    04:00 +6°C° 0 mm 4 m/s 734 mmHg 69%
    05:00 +5°C° 0 mm 4 m/s 734 mmHg 69%
    06:00 +6°C° 0 mm 4 m/s 734 mmHg 66%
    07:00 +6°C° 0 mm 5 m/s 734 mmHg 62%
    08:00 +7°C° 0 mm 5 m/s 734 mmHg 59%
    09:00 +9°C° 0 mm 6 m/s 733 mmHg 51%
    10:00 +11°C° 0 mm 7 m/s 733 mmHg 44%
    11:00 +15°C° 0 mm 8 m/s 732 mmHg 36%
    12:00 +16°C° 0 mm 8 m/s 731 mmHg 34%
    13:00 +17°C° 0 mm 8 m/s 731 mmHg 33%
    14:00 +18°C° 0 mm 8 m/s 730 mmHg 31%
    15:00 +18°C° 0 mm 7 m/s 729 mmHg 32%
    16:00 +17°C° 0 mm 6 m/s 729 mmHg 33%
    17:00 +17°C° 0 mm 5 m/s 729 mmHg 34%
    18:00 +16°C° 0 mm 5 m/s 729 mmHg 36%
    19:00 +15°C° 0 mm 5 m/s 728 mmHg 39%
    20:00 +14°C° 0 mm 5 m/s 728 mmHg 42%
    21:00 +14°C° 0 mm 5 m/s 728 mmHg 43%
    22:00 +14°C° 0 mm 5 m/s 728 mmHg 44%
    23:00 +14°C° 0 mm 6 m/s 727 mmHg 45%

    21 Iulie, Sâmbătă

    Timp Temperatura Precipitaţii Vânt Presiune Umiditate
    00:00 +13°C° 0 mm 6 m/s 727 mmHg 47%
    01:00 +13°C° 0 mm 5 m/s 727 mmHg 49%
    02:00 +13°C° 0 mm 5 m/s 726 mmHg 50%
    03:00 +12°C° 0 mm 5 m/s 726 mmHg 52%
    04:00 +12°C° 0 mm 5 m/s 726 mmHg 54%
    05:00 +12°C° 0 mm 5 m/s 725 mmHg 56%
    06:00 +12°C° 0 mm 5 m/s 725 mmHg 55%
    07:00 +12°C° 0 mm 5 m/s 725 mmHg 54%
    08:00 +13°C° 0 mm 6 m/s 725 mmHg 53%
    09:00 +15°C° 0 mm 7 m/s 725 mmHg 47%
    10:00 +18°C° 0 mm 9 m/s 724 mmHg 40%
    11:00 +22°C° 0 mm 11 m/s 724 mmHg 34%
    12:00 +22°C° 0 mm 11 m/s 723 mmHg 33%
    13:00 +23°C° 0 mm 12 m/s 722 mmHg 32%
    14:00 +23°C° 0 mm 13 m/s 722 mmHg 31%
    15:00 +22°C° 0 mm 11 m/s 722 mmHg 35%
    16:00 +21°C° 0 mm 10 m/s 722 mmHg 39%
    17:00 +20°C° 0 mm 8 m/s 722 mmHg 43%
    18:00 +18°C° 0,4 mm 8 m/s 722 mmHg 51%
    19:00 +17°C° 0,4 mm 8 m/s 722 mmHg 58%
    20:00 +17°C° 0,4 mm 8 m/s 723 mmHg 66%
    21:00 +16°C° 0,7 mm 8 m/s 722 mmHg 70%
    22:00 +16°C° 0,7 mm 8 m/s 722 mmHg 74%
    23:00 +16°C° 0,7 mm 8 m/s 722 mmHg 78%
    Arată mai mult